Temp
5 4 4 4 3 3 3 3 3 3 3 4 4 4 4 4 4 4 4 4 4 4 4 4 4 4 4 4 3 3 3 3 3 3 3 3 3 3 2 2 3 3
5 4 4 3 3 3 3 3 3 3 3 4 4 4 4 4 4 4 4 4 4 4 4 4 4 4 3 3 3 3 3 3 3 3 3 3 3 3 2 2 2 2
5 4 3 3 3 3 3 3 2 3 3 3 3 3 4 4 4 4 4 4 4 4 4 4 4 4 3 3 3 3 3 3 3 3 3 3 3 3 2 2 2 2
5 5 3 2 3 3 3 3 2 3 3 3 3 4 4 4 4 4 4 4 4 4 4 4 4 4 3 3 3 3 3 3 3 3 3 3 3 3 2 2 2 2
5 5 4 3 3 3 3 3 3 3 3 3 4 4 4 4 4 4 4 4 4 4 4 4 4 4 3 3 3 3 3 3 3 3 3 3 3 3 2 2 2 2
5 5 4 3 3 3 3 3 3 3 3 3 4 4 4 4 4 4 4 4 4 4 4 4 4 3 3 3 3 3 3 3 3 3 3 3 3 3 3 2 2 2
5 5 4 4 4 4 3 3 3 3 3 3 4 4 4 4 4 4 4 4 4 4 4 4 3 3 3 3 3 3 3 3 2 2 2 2 2 2 2 2 2 2
4 4 4 4 4 4 3 3 3 3 3 3 3 3 4 4 4 4 3 3 3 4 4 4 3 3 3 3 3 2 2 3 2 2 2 2 2 2 2 2 2 2
4 4 4 4 4 4 4 3 3 3 3 3 3 3 3 3 3 3 3 3 3 3 4 4 4 3 3 3 3 2 2 3 2 2 2 2 2 2 2 2 2 2
3 3 4 4 4 4 3 3 3 3 3 3 3 3 3 3 3 3 3 3 3 3 3 4 4 4 3 3 3 2 2 2 2 2 2 2 2 2 2 2 2 2
3 3 3 4 4 3 3 3 3 3 3 3 3 3 3 3 3 3 3 3 3 3 3 3 3 4 3 3 3 2 2 2 2 2 2 2 2 2 2 1 1 2
3 3 3 3 3 3 3 3 3 3 3 3 3 3 3 3 3 3 3 3 3 3 3 3 3 3 3 3 3 3 2 2 2 2 2 2 2 2 2 2 1 1
3 3 3 3 3 3 3 3 3 3 3 3 3 3 3 3 3 3 3 3 3 3 3 3 3 3 3 3 3 3 2 2 2 2 2 2 2 2 2 2 2 2
3 3 3 2 2 3 3 3 3 3 2 2 3 3 3 3 2 2 2 2 2 2 3 3 3 3 3 3 3 3 3 2 2 2 2 2 1 1 1 1 2 2
2 2 2 2 2 2 2 2 2 2 2 2 2 2 2 2 2 2 2 2 2 2 3 3 2 2 3 3 3 3 3 2 2 2 2 1 1 1 1 1 1 2
2 2 2 2 2 2 2 2 2 2 2 2 2 2 2 2 2 2 2 2 2 2 2 2 2 2 2 2 3 3 3 2 2 2 2 2 1 1 1 1 1 1
2 2 2 1 1 1 1 1 1 1 1 2 2 2 2 2 2 1 1 2 2 2 2 2 2 2 2 2 2 2 2 2 2 2 2 2 2 2 2 1 1 1
2 1 1 1 1 1 1 1 1 1 1 1 1 1 1 1 1 1 2 2 2 2 2 2 2 2 2 2 2 2 2 2 2 2 2 1 1 2 2 1 1 1
1 1 1 1 1 1 1 1 1 1 1 1 1 1 1 1 1 1 2 2 2 1 1 1 1 1 2 2 2 2 2 2 2 2 1 1 1 1 1 1 1 1
2 1 1 1 1 1 1 1 1 1 1 1 1 1 1 1 1 1 1 1 1 1 1 1 1 1 1 1 2 2 2 2 1 1 1 1 1 1 1 1 1 1
2 1 1 1 1 1 1 1 1 0 0 0 0 0 0 0 0 0 0 0 0 0 1 1 1 1 1 1 1 1 1 1 1 1 1 1 1 1 1 1 1 0
1 1 1 0 1 0 0 0 0 0 0 0 -0 -0 -0 -0 -0 -0 -0 -0 -0 -0 -0 0 0 0 1 1 1 1 1 1 1 1 1 1 1 1 1 0 0 0
1 1 1 0 0 0 0 0 0 0 0 -0 -0 -0 -1 -1 -1 -1 -1 -1 -1 -1 -1 -0 -0 -0 -0 0 0 0 0 1 1 1 1 1 1 0 0 0 1 0
0 0 0 0 0 0 -0 -0 0 -0 -0 -1 -1 -1 -1 -1 -2 -2 -1 -1 -1 -1 -1 -1 -1 -1 -1 -0 -0 -0 -0 0 0 0 0 0 0 -0 0 0 0 0
-0 -0 0 -0 -0 -0 -0 -0 -0 -0 -1 -1 -1 -1 -1 -1 -1 -1 -1 -1 -1 -1 -1 -1 -1 -1 -1 -1 -1 -1 -1 -0 0 0 0 0 0 -0 0 0 0 0
-0 -0 -0 -0 -0 -0 -0 -1 -1 -1 -1 -1 -1 -1 -1 -1 -1 -1 -1 -1 -1 -1 -1 -1 -1 -1 -1 -1 -1 -1 -1 -1 -0 -0 -0 -0 -0 -1 -0 0 0 0
Height
3107 3108 3111 3114 3117 3121 3123 3126 3129 3132 3135 3136 3137 3138 3139 3141 3142 3143 3144 3145 3146 3146 3147 3148 3149 3150 3150 3151 3151 3152 3153 3155 3156 3157 3157 3159 3160 3161 3162 3163 3164 3166
3106 3107 3109 3112 3116 3120 3123 3125 3128 3132 3134 3135 3136 3137 3139 3140 3141 3142 3143 3144 3145 3145 3146 3147 3148 3148 3149 3150 3150 3151 3152 3153 3155 3156 3157 3158 3159 3160 3161 3162 3163 3164
3105 3106 3109 3112 3116 3120 3123 3124 3127 3131 3133 3133 3135 3136 3138 3139 3140 3141 3142 3143 3144 3144 3145 3146 3146 3147 3148 3149 3149 3150 3151 3152 3154 3155 3156 3157 3158 3159 3160 3161 3162 3163
3103 3105 3107 3111 3115 3120 3122 3124 3126 3129 3130 3132 3134 3136 3137 3138 3139 3141 3141 3142 3143 3144 3144 3145 3145 3146 3147 3148 3148 3149 3150 3151 3152 3154 3155 3156 3157 3158 3159 3160 3161 3162
3102 3103 3105 3109 3114 3118 3120 3123 3126 3127 3129 3131 3134 3135 3137 3138 3139 3140 3141 3141 3142 3143 3143 3144 3145 3145 3146 3146 3147 3148 3149 3150 3151 3153 3154 3155 3156 3157 3158 3159 3160 3160
3100 3102 3104 3108 3112 3116 3118 3122 3125 3126 3128 3131 3133 3135 3136 3137 3138 3139 3140 3141 3141 3142 3143 3143 3144 3144 3145 3145 3146 3147 3148 3149 3150 3151 3152 3154 3155 3156 3157 3158 3159 3159
3099 3101 3104 3108 3111 3114 3117 3121 3123 3125 3128 3130 3132 3134 3135 3136 3137 3138 3139 3140 3141 3141 3142 3143 3143 3144 3144 3145 3145 3146 3147 3148 3149 3149 3151 3152 3153 3154 3155 3157 3158 3158
3099 3101 3104 3107 3110 3113 3116 3119 3122 3124 3126 3129 3131 3133 3134 3135 3137 3138 3139 3139 3140 3141 3141 3142 3142 3143 3143 3144 3145 3145 3146 3147 3148 3149 3150 3151 3152 3153 3154 3155 3156 3157
3098 3101 3104 3106 3110 3112 3115 3117 3120 3122 3125 3127 3129 3131 3133 3134 3136 3137 3138 3139 3140 3140 3141 3141 3141 3142 3142 3143 3144 3144 3145 3146 3147 3148 3149 3150 3151 3152 3153 3154 3154 3155
3099 3101 3104 3106 3109 3111 3113 3116 3119 3121 3123 3126 3128 3130 3131 3133 3135 3136 3137 3138 3139 3139 3140 3140 3140 3141 3141 3142 3142 3143 3144 3145 3146 3147 3148 3149 3151 3151 3152 3153 3153 3153
3099 3101 3103 3106 3108 3110 3112 3115 3117 3120 3122 3124 3126 3128 3130 3132 3133 3134 3136 3137 3138 3138 3139 3139 3139 3140 3140 3141 3141 3142 3143 3144 3145 3146 3148 3149 3150 3151 3151 3152 3152 3152
3098 3100 3103 3105 3107 3109 3111 3114 3116 3118 3120 3122 3124 3126 3128 3130 3132 3133 3134 3135 3136 3137 3137 3138 3138 3139 3139 3140 3140 3140 3141 3142 3144 3146 3147 3148 3149 3150 3150 3150 3151 3152
3097 3100 3102 3104 3105 3108 3110 3113 3115 3117 3119 3121 3123 3125 3127 3129 3130 3132 3133 3134 3135 3135 3136 3137 3138 3138 3139 3139 3139 3139 3140 3141 3143 3144 3146 3147 3148 3148 3148 3149 3150 3150
3097 3099 3101 3103 3104 3106 3109 3111 3113 3115 3117 3120 3122 3124 3126 3127 3128 3130 3131 3133 3134 3134 3134 3136 3137 3137 3137 3138 3138 3138 3139 3140 3141 3143 3144 3146 3147 3147 3147 3148 3148 3148
3096 3098 3100 3102 3103 3105 3107 3109 3112 3114 3116 3118 3121 3122 3124 3125 3127 3128 3129 3131 3132 3132 3133 3135 3136 3136 3136 3136 3136 3137 3138 3139 3140 3142 3143 3144 3145 3145 3145 3146 3146 3146
3095 3097 3099 3101 3102 3104 3105 3107 3110 3112 3114 3116 3119 3121 3123 3124 3125 3126 3128 3129 3130 3131 3133 3133 3133 3134 3134 3134 3135 3135 3136 3137 3139 3140 3141 3143 3143 3143 3143 3144 3145 3145
3092 3095 3098 3100 3101 3102 3103 3106 3108 3111 3112 3115 3118 3119 3120 3122 3123 3124 3126 3127 3128 3130 3131 3131 3132 3133 3133 3133 3134 3134 3134 3135 3137 3139 3140 3141 3142 3142 3142 3143 3143 3144
3090 3092 3095 3097 3098 3099 3102 3104 3106 3108 3110 3113 3115 3117 3118 3119 3121 3121 3122 3125 3127 3129 3129 3129 3130 3131 3132 3132 3133 3133 3133 3134 3135 3136 3138 3139 3139 3140 3141 3142 3142 3142
3085 3087 3089 3093 3095 3097 3100 3102 3103 3105 3107 3110 3112 3114 3115 3117 3117 3119 3121 3124 3126 3126 3127 3128 3128 3129 3130 3131 3131 3131 3132 3132 3133 3134 3135 3136 3137 3138 3139 3140 3140 3140
3081 3083 3086 3089 3092 3094 3097 3100 3102 3104 3106 3108 3110 3112 3114 3115 3116 3119 3122 3123 3123 3123 3124 3125 3126 3127 3128 3129 3129 3130 3130 3131 3131 3132 3133 3134 3135 3136 3137 3137 3137 3138
3080 3082 3084 3088 3090 3093 3096 3098 3101 3103 3104 3106 3108 3110 3111 3113 3114 3117 3119 3119 3119 3121 3122 3122 3123 3124 3126 3127 3127 3128 3128 3129 3129 3130 3131 3132 3132 3133 3135 3135 3135 3136
3079 3081 3084 3087 3090 3092 3094 3097 3099 3101 3102 3103 3105 3106 3108 3110 3112 3114 3114 3115 3116 3117 3118 3119 3120 3121 3123 3124 3125 3125 3126 3127 3127 3128 3129 3129 3130 3131 3132 3132 3133 3133
3078 3081 3083 3086 3089 3091 3092 3094 3096 3098 3099 3100 3101 3103 3105 3107 3109 3110 3111 3111 3112 3113 3114 3116 3117 3118 3119 3121 3122 3123 3124 3124 3125 3126 3127 3127 3128 3129 3129 3129 3131 3131
3077 3078 3080 3083 3086 3088 3090 3092 3094 3095 3096 3097 3098 3100 3102 3104 3105 3106 3107 3108 3109 3110 3112 3113 3114 3115 3116 3117 3118 3119 3121 3122 3123 3123 3124 3125 3126 3126 3126 3127 3128 3128
3075 3077 3079 3081 3083 3084 3086 3088 3090 3091 3093 3095 3096 3098 3100 3101 3102 3104 3105 3106 3107 3108 3109 3110 3111 3112 3113 3114 3115 3116 3118 3119 3121 3121 3122 3124 3124 3123 3123 3124 3125 3126
3074 3076 3078 3080 3081 3083 3084 3086 3087 3089 3091 3093 3095 3096 3097 3099 3100 3101 3103 3104 3104 3105 3106 3107 3108 3110 3110 3111 3112 3113 3115 3117 3119 3119 3120 3122 3122 3121 3120 3121 3123 3124
Wind_Speed
10 14 19 24 30 30 29 28 26 23 22 19 16 14 13 12 11 11 11 11 10 10 10 10 11 11 12 12 12 12 11 11 11 10 11 13 13 14 13 13 12 12
11 17 21 25 29 30 29 28 26 23 21 18 16 15 14 12 12 11 11 10 10 10 10 10 11 12 13 13 13 13 13 12 11 11 12 12 12 13 12 12 13 12
11 16 21 24 27 29 28 26 26 24 20 17 16 15 14 13 12 11 10 10 9 9 9 10 10 12 13 13 14 14 14 13 12 12 13 13 12 12 12 12 13 13
11 15 21 25 27 29 27 25 25 23 20 18 16 15 14 13 12 11 10 10 9 9 9 10 10 11 12 12 13 14 14 13 12 12 13 13 12 12 12 12 12 13
13 17 24 27 28 29 27 24 23 22 20 18 16 15 14 13 12 11 11 10 9 9 9 9 9 10 10 12 12 12 13 13 13 12 13 13 12 12 12 11 12 13
16 19 25 29 28 28 26 24 23 22 20 18 16 15 14 13 12 11 10 9 8 8 8 8 8 8 9 11 11 11 11 12 12 11 12 13 12 12 12 12 12 12
19 21 25 30 29 27 26 25 25 24 21 20 17 16 14 13 11 10 9 9 8 8 9 8 8 8 8 10 10 11 11 11 11 11 12 12 11 11 11 12 12 13
22 24 28 30 28 27 27 27 27 26 23 21 18 16 14 12 11 9 9 9 9 9 9 9 8 8 8 9 10 11 11 11 11 11 12 12 11 11 11 11 11 12
27 28 30 30 27 27 29 29 29 27 24 21 18 16 14 12 10 9 9 8 8 9 9 9 9 8 7 8 10 11 11 12 12 12 12 12 11 11 10 10 11 12
30 30 31 29 27 28 31 30 29 27 24 22 20 17 15 13 11 10 9 8 8 8 8 9 9 8 7 7 9 10 11 12 13 13 13 13 13 12 12 12 12 12
30 31 30 28 27 29 31 30 29 27 25 23 21 19 16 14 13 11 9 8 8 8 7 8 8 8 8 7 8 10 11 12 13 12 13 14 14 14 14 14 13 13
30 30 30 29 29 31 31 30 28 27 26 24 22 20 18 15 14 12 10 9 8 7 6 7 8 8 8 8 8 10 12 12 13 14 14 14 14 15 16 15 15 15
31 32 32 31 31 33 32 30 29 28 27 26 24 22 19 17 15 13 12 10 8 8 8 7 7 7 7 8 9 10 12 13 15 15 15 15 15 15 16 15 14 16
31 32 34 34 34 35 34 31 30 30 28 26 24 22 21 19 17 15 14 11 10 10 11 8 5 5 6 6 8 10 12 15 16 16 16 15 15 15 16 16 15 16
32 33 35 36 36 36 34 31 31 30 27 26 25 23 22 20 19 17 15 12 12 12 11 8 5 5 5 6 7 9 11 15 17 17 17 16 16 17 18 16 15 15
33 35 36 37 38 37 34 33 32 30 27 27 26 24 23 23 21 18 16 15 15 14 11 8 7 6 6 7 8 9 11 13 15 17 18 17 18 20 20 17 16 16
35 36 36 37 39 37 35 35 33 30 29 28 25 24 25 26 22 19 19 19 17 14 12 11 10 8 8 8 9 10 11 12 14 16 18 17 18 20 21 18 16 16
37 37 37 39 39 38 37 37 35 32 31 29 26 26 27 26 23 22 22 21 17 15 14 13 12 10 10 10 10 10 11 12 14 16 17 18 19 20 20 18 16 16
39 39 40 41 40 39 38 38 36 34 32 30 29 29 28 26 25 25 23 20 18 17 17 15 14 13 11 11 11 10 11 13 14 15 17 19 20 20 20 18 17 17
37 40 43 41 39 37 36 36 35 32 30 29 29 28 26 25 25 23 21 20 21 21 20 18 17 15 13 12 11 11 12 13 14 16 17 18 19 20 21 21 21 20
34 38 40 39 36 35 35 35 35 33 31 29 28 27 25 25 24 21 21 23 24 23 23 22 20 17 15 14 13 12 13 14 15 17 16 16 17 17 17 20 23 23
36 37 37 36 35 36 36 36 35 35 33 32 31 30 29 28 26 24 25 27 27 27 28 27 26 23 19 16 14 13 14 15 16 16 16 16 16 14 15 18 21 23
36 36 35 35 34 34 35 36 36 35 34 33 33 32 32 31 30 28 28 28 29 30 30 29 28 27 22 18 15 14 14 15 16 15 16 16 15 15 17 19 20 22
33 32 33 34 34 33 33 33 34 33 33 33 32 30 30 30 29 29 28 29 30 31 29 26 24 23 20 16 14 13 14 16 17 17 17 16 16 17 18 19 19 21
25 25 27 29 30 32 32 32 33 33 31 29 28 27 28 29 28 28 28 27 28 28 26 22 21 20 17 14 12 13 15 16 18 18 18 18 17 18 19 20 20 21
18 18 21 23 24 27 29 30 31 30 27 25 26 27 26 24 22 21 21 20 19 18 17 17 17 18 16 13 12 13 16 17 18 19 19 18 18 19 22 23 22 21
Wind_Direction
248 225 218 213 204 195 189 185 180 183 190 189 183 184 188 190 191 192 191 193 199 203 206 208 207 206 209 209 208 210 214 213 213 212 214 218 221 224 228 231 234 234
241 224 219 216 204 192 188 182 175 180 186 181 178 184 187 189 193 193 193 198 202 205 210 212 214 215 216 215 211 211 214 212 211 210 213 221 226 226 228 232 237 237
235 220 214 212 201 192 190 182 173 177 181 177 178 184 185 186 191 193 193 197 200 202 207 210 214 217 217 216 212 213 216 213 211 211 212 219 226 228 227 229 233 233
221 209 201 201 196 192 190 181 175 176 174 173 179 182 183 184 186 188 188 190 192 196 203 209 212 214 215 215 213 215 216 213 211 213 213 216 222 226 228 231 234 232
204 197 192 190 189 188 185 178 175 173 168 170 176 177 179 180 179 181 180 180 184 193 204 210 212 214 215 214 216 216 213 211 214 214 211 213 218 222 224 230 234 236
195 193 187 185 184 181 178 175 173 169 165 169 171 170 173 175 175 177 180 183 189 199 206 208 207 209 211 212 215 216 212 212 216 216 214 215 218 218 218 222 227 233
193 189 183 181 183 182 178 178 174 169 168 171 170 169 170 172 175 179 188 197 201 205 209 208 204 204 209 213 214 215 217 217 217 221 222 219 218 220 220 218 221 226
191 186 182 180 184 185 180 178 175 172 174 174 173 174 172 171 175 179 187 192 193 199 206 207 206 206 211 216 215 214 217 217 216 219 222 221 220 223 224 221 221 224
189 185 184 185 188 185 179 178 178 177 177 176 178 181 179 178 180 182 185 186 186 195 202 206 208 207 208 212 214 213 214 213 214 215 216 219 222 223 226 227 225 225
190 188 189 190 191 184 180 181 182 182 180 181 184 186 184 185 190 192 191 190 193 198 203 209 212 210 209 210 213 215 214 211 213 214 213 216 219 220 224 228 227 225
193 193 194 194 191 185 183 185 186 186 186 186 189 191 190 191 194 198 197 195 201 205 208 216 217 215 215 216 215 215 216 216 215 216 216 218 220 220 223 225 225 226
196 198 196 194 192 188 186 188 190 191 191 192 194 194 195 197 199 202 203 204 211 216 220 226 226 224 221 221 222 218 217 218 217 218 219 220 222 224 227 226 223 225
202 202 197 194 193 191 191 194 196 196 196 197 199 199 199 202 204 206 210 215 222 231 237 232 228 233 232 232 237 231 224 221 220 220 221 222 226 230 235 233 226 226
209 205 200 198 195 194 199 203 201 201 201 201 203 204 204 206 208 210 215 217 218 232 245 240 230 242 244 242 248 244 234 228 224 223 223 223 225 231 239 242 236 230
210 207 204 202 201 206 211 207 202 203 204 205 206 206 208 213 215 216 220 220 222 236 251 254 251 258 254 248 253 251 242 234 230 229 228 227 226 229 235 240 242 239
208 207 207 208 212 218 215 203 200 204 206 207 208 208 213 218 218 217 217 221 231 245 254 256 261 272 270 261 259 256 246 237 233 232 231 231 231 233 237 241 245 247
205 206 211 216 219 218 209 200 201 205 207 209 210 212 220 223 220 217 219 225 236 245 247 251 261 274 276 270 266 259 247 235 231 231 232 234 234 235 238 241 244 244
204 209 214 214 212 210 204 200 202 205 206 208 210 216 224 224 219 220 225 232 238 237 238 243 251 262 271 272 268 261 250 237 231 230 232 236 237 236 236 236 236 238
204 207 209 206 203 203 202 201 204 208 209 209 213 220 224 223 223 227 233 236 236 234 236 240 243 252 263 266 263 258 252 245 239 235 234 236 238 237 235 233 231 233
203 205 204 200 197 199 201 202 205 212 217 219 222 226 229 230 233 237 239 236 232 231 234 236 239 246 255 259 256 251 248 245 241 240 238 237 238 238 237 237 238 239
203 205 202 199 199 202 204 205 208 214 220 224 226 227 229 232 234 234 232 231 232 233 234 235 236 241 250 254 249 244 244 243 240 241 243 243 244 244 244 243 243 244
203 205 204 204 206 209 209 209 212 215 219 224 229 228 226 227 228 227 228 231 234 236 237 239 242 244 246 246 241 237 239 241 241 242 244 245 245 246 247 242 239 241
206 209 210 210 210 213 214 215 217 219 220 224 228 228 228 229 228 228 230 234 237 239 241 245 249 246 239 234 232 231 233 238 240 239 240 243 244 246 246 241 237 240
207 210 210 209 210 214 217 218 218 217 218 221 225 226 228 229 228 228 231 236 241 246 249 250 248 240 228 223 225 228 231 235 236 235 234 237 239 242 244 242 240 241
199 204 205 206 210 214 215 215 216 215 216 220 223 223 223 228 232 234 237 242 248 253 254 250 243 237 229 221 220 226 231 234 236 237 237 237 238 242 245 245 244 244
191 194 195 199 206 209 207 207 211 214 216 217 218 220 225 231 236 236 236 241 246 247 246 241 239 238 233 220 216 224 229 231 235 238 239 240 243 247 250 250 249 250